[[{"header":{"parameterUnit":"m.s-1","parameterCategory":1,"la1":30.2991,"la2":30.254,"lo1":-89.0895,"lo2":-89.0444,"dy":0.0017,"dx":0.0017,"nx":28,"ny":28,"refTime":"2024-08-01T21:00:00:Z","depth":0,"parameterNumber":2,"parameterNumberName":"U-component_of_WINDS"},"data":[0,0,0,0,0,0,0,0,0,0,0,0,0,0,0,0,0,0,0,0,0,0,0,0,0,0,0,0,0,0,0,0,0,0,0,0,0,0,0,0,0,0,0,0,0,0,0,0,0,0,0,0,0,0,0,0,0,0,1.9374,1.9376,0,1.9499,1.9501,1.9502,1.9503,1.9501,1.9499,1.9498,1.9627,1.9632,1.9637,0,0,0,0,0,0,0,0,0,0,0,0,0,1.9137,1.9141,1.9374,1.9376,1.9377,1.9499,1.9501,1.9503,1.9503,1.9501,1.9499,1.9497,1.9626,1.9631,1.9637,0,0,0,0,0,0,0,0,0,0,0,0,0,1.9249,1.9142,1.9374,1.9392,1.9395,1.9499,1.9501,1.9503,1.9503,1.9501,1.9498,1.9496,1.9624,1.9631,1.9638,1.9733,0,0,1.9661,1.9664,0,0,0,0,0,0,0,0,1.9242,1.9257,1.9388,1.9391,1.9395,1.9483,1.9465,1.958,1.9504,1.9462,1.9498,1.9495,1.9581,1.9592,1.9621,1.9739,1.9744,1.9662,1.9666,1.9669,1.9671,0,0,0,0,0,0,0,1.9235,1.9252,1.9424,1.939,1.9394,1.9394,1.9408,1.9486,1.9534,1.9466,1.9466,1.9481,1.9583,1.9614,1.9624,1.9746,1.9661,1.9668,1.9672,1.9675,1.9947,1.9949,0,0,0,0,0,0,1.9223,1.9246,1.942,1.9428,1.9311,1.9401,1.9415,1.9457,1.9533,1.9542,1.9483,1.948,1.9602,1.9615,1.9628,1.9743,1.9669,1.9676,1.968,1.9944,1.9947,1.995,0,0,0,0,0,0,1.9218,1.9238,1.9415,1.9337,1.9359,1.9407,1.9454,1.9461,1.9492,1.9546,1.9554,1.9506,1.9601,1.9618,1.9706,1.9748,1.9679,1.9686,1.9941,1.9945,1.9949,1.9973,0,0,0,0,0,0,1.9211,1.9237,1.9273,1.9338,1.9363,1.949,1.9457,1.9465,1.9504,1.9502,1.957,1.9578,1.96,1.9695,1.9714,1.9757,1.9692,1.9937,1.9943,1.9947,1.9969,1.9978,1.9985,0,0,0,0,0,1.9203,1.9275,1.9275,1.9296,1.941,1.9493,1.9508,1.9531,1.9508,1.9545,1.9579,1.9576,1.974,1.9704,1.9725,1.9771,1.9935,1.9941,1.9947,1.9966,1.9976,1.9985,0,0,0,0,0,0,1.9215,1.9284,1.9284,1.938,1.943,1.9493,1.954,1.9542,1.96,1.9596,1.9622,1.9638,1.9725,1.9757,1.9716,1.9866,1.9835,1.9845,1.9842,1.9852,1.986,1.985,1.9698,0,0,0,0,0,1.9229,1.929,1.9348,1.9427,1.9452,1.9492,1.9529,1.9542,1.9596,1.9617,1.9658,1.9711,1.9774,1.9815,1.9876,1.9974,1.9988,2.0016,2.0024,2.003,2.0039,2.0092,2.0105,1.997,1.997,1.997,0,0,1.9258,1.9303,1.9341,1.943,1.9471,1.9534,1.951,1.9578,1.9625,1.9628,1.9713,1.9745,1.9805,1.9899,1.9942,1.9928,2.0079,2.0038,2.0043,2.0048,2.01,2.0112,2.0124,1.9975,1.9974,1.9973,0,0,1.9343,1.9384,1.9454,1.9495,1.9557,1.9582,1.9599,1.9661,1.9682,1.9769,1.9772,1.9828,1.9937,1.9979,2.0015,2.0116,2.0115,2.0135,2.0178,2.0229,2.024,2.0249,2.0284,2.0297,2.0144,2.0144,2.0144,0,1.9372,1.9467,1.949,1.9558,1.9597,1.9602,1.9673,1.9712,1.979,1.9817,1.98,1.9936,1.9977,2.008,2.0104,2.0133,2.0153,2.0128,2.0236,2.0246,2.0255,2.0289,2.0302,2.0146,2.0146,2.0146,2.0146,0,1.9498,1.9564,1.9613,1.9688,1.9733,1.9802,1.9836,1.9878,1.9888,1.9915,2.0003,2.0052,2.0123,2.0149,2.0159,2.0253,2.0242,2.0231,2.02,2.027,2.0302,2.0315,2.0149,2.0148,2.0148,2.0147,0,0,1.9595,1.9681,1.9699,1.9732,1.9801,1.9852,1.9922,1.999,2.0026,2.008,2.0139,2.023,2.0219,2.026,2.0275,2.0321,2.0396,2.0304,2.0305,2.0318,2.0502,2.0509,2.0524,2.0396,2.0399,2.0401,2.0496,0,1.9686,1.9809,1.9832,1.9939,1.9999,2.0005,2.0065,2.0114,2.0141,2.0197,2.0228,2.0292,2.0274,2.0298,2.0343,2.0377,2.0433,2.0371,2.0451,2.0453,2.0435,2.0541,2.0549,2.0637,2.0509,2.0511,2.0513,0,1.981,1.9866,1.9979,2.0038,2.0065,2.0119,2.0183,2.0236,2.0291,2.0308,2.0353,2.0363,2.0435,2.0402,2.0501,2.0458,2.0492,2.0514,2.0518,2.0526,2.0487,2.0551,2.0666,2.0678,2.0533,2.0532,2.053,0,1.9867,1.9972,2.0053,2.0082,2.0153,2.0191,2.0222,2.0275,2.0314,2.0371,2.0397,2.0461,2.0496,2.0546,2.0573,2.0546,2.067,2.0639,2.0686,2.0685,2.0711,2.0709,2.0832,2.0735,2.0735,2.0734,2.0734,0,1.9967,2.0036,2.0079,2.0129,2.0206,2.0231,2.0307,2.0338,2.0384,2.044,2.0449,2.0501,2.0534,2.0591,2.0613,2.0691,2.0707,2.0723,2.0728,2.0722,2.072,2.0744,2.0738,2.0738,2.0737,2.0736,2.0736,0,2.0044,2.0076,2.0164,2.0225,2.0242,2.0296,2.0347,2.0396,2.0423,2.0493,2.0511,2.0555,2.0622,2.0654,2.0738,2.0752,2.0841,2.0842,2.0822,2.0824,2.0868,2.0863,2.1011,2.1031,2.0921,2.0922,2.0923,0,2.0105,2.0158,2.0224,2.0261,2.0294,2.0355,2.0395,2.0422,2.0464,2.053,2.057,2.0638,2.0693,2.08,2.0839,2.0903,2.0906,2.0953,2.0915,2.0907,2.0905,2.0901,2.0906,2.0959,2.096,2.0961,2.0962,0,2.021,2.0223,2.028,2.0343,2.0391,2.0442,2.0493,2.0523,2.0558,2.0604,2.0673,2.0716,2.0801,2.0868,2.0934,2.0967,2.097,2.0974,2.0988,2.0982,2.0967,2.0975,2.084,2.097,2.0969,2.0969,2.0968,2.0968,2.028,2.0327,2.038,2.0444,2.0484,2.0531,2.0579,2.0612,2.067,2.0741,2.0754,2.0826,2.088,2.0969,2.1004,2.1061,2.105,2.1071,2.1076,2.1081,2.1082,2.0959,2.1074,2.1073,2.1073,2.1073,2.1073,0,2.0384,2.0418,2.0477,2.0547,2.0597,2.0595,2.0651,2.0693,2.0756,2.0806,2.086,2.0938,2.1003,2.1047,2.1112,2.115,2.1153,2.1166,2.1163,2.117,2.1089,2.107,2.1162,2.1162,2.1162,2.1162,2.1162,2.1162,2.0444,2.0523,2.0542,2.0641,2.0675,2.0746,2.0778,2.0821,2.086,2.0947,2.1001,2.1029,2.1076,2.1145,2.1204,2.1216,2.1239,2.1252,2.1263,2.1186,2.1176,2.1167,2.1149,2.1257,2.1257,2.134,2.134,2.1341]},{"header":{"parameterUnit":"m.s-1","parameterCategory":1,"la1":30.2991,"la2":30.254,"lo1":-89.0895,"lo2":-89.0444,"dy":0.0017,"dx":0.0017,"nx":28,"ny":28,"refTime":"2024-08-01T21:00:00:Z","depth":0,"parameterNumber":3,"parameterNumberName":"V-component_of_WINDS"},"data":[0,0,0,0,0,0,0,0,0,0,0,0,0,0,0,0,0,0,0,0,0,0,0,0,0,0,0,0,0,0,0,0,0,0,0,0,0,0,0,0,0,0,0,0,0,0,0,0,0,0,0,0,0,0,0,0,0,0,3.7639,3.764,0,3.7703,3.7704,3.7704,3.7663,3.7662,3.766,3.7658,3.7718,3.7721,3.7724,0,0,0,0,0,0,0,0,0,0,0,0,0,3.7476,3.7479,3.7639,3.764,3.7641,3.7703,3.7704,3.7704,3.7664,3.7661,3.7659,3.7657,3.7717,3.7721,3.7725,0,0,0,0,0,0,0,0,0,0,0,0,0,3.7544,3.748,3.7639,3.7628,3.7628,3.7703,3.7704,3.7705,3.7664,3.7661,3.7659,3.7656,3.7715,3.772,3.7725,3.7813,0,0,3.7741,3.7743,0,0,0,0,0,0,0,0,3.754,3.755,3.7629,3.7629,3.7629,3.7672,3.7668,3.7741,3.7665,3.765,3.7658,3.7655,3.7705,3.771,3.7728,3.7816,3.7818,3.7741,3.7744,3.7746,3.7748,0,0,0,0,0,0,0,3.7536,3.7547,3.7664,3.763,3.763,3.7618,3.7624,3.7682,3.7692,3.7651,3.7649,3.7657,3.7704,3.7724,3.7729,3.7819,3.7741,3.7745,3.7748,3.775,3.798,3.7982,0,0,0,0,0,0,3.7533,3.7543,3.7662,3.7666,3.7577,3.7623,3.763,3.7661,3.7692,3.7694,3.7659,3.7655,3.7716,3.7724,3.7731,3.7835,3.7746,3.7751,3.7754,3.7976,3.798,3.7984,0,0,0,0,0,0,3.7529,3.7544,3.766,3.7604,3.7618,3.7629,3.7664,3.7664,3.7684,3.7698,3.7699,3.7678,3.7714,3.7724,3.7793,3.7837,3.7753,3.7758,3.7973,3.7978,3.7982,3.8044,0,0,0,0,0,0,3.7525,3.7543,3.7578,3.7605,3.7621,3.7722,3.7667,3.7667,3.7693,3.7688,3.7715,3.7717,3.7713,3.7786,3.7798,3.7842,3.7762,3.7969,3.7975,3.798,3.8038,3.805,3.8061,0,0,0,0,0,3.7519,3.7592,3.758,3.7594,3.7665,3.7725,3.7734,3.7729,3.7697,3.7731,3.774,3.7716,3.783,3.7793,3.7806,3.7853,3.7966,3.7973,3.798,3.8033,3.8048,3.806,0,0,0,0,0,0,3.7567,3.7595,3.7582,3.7666,3.7694,3.7718,3.7761,3.7745,3.7781,3.7774,3.7765,3.7771,3.7843,3.7854,3.7813,3.7938,3.7893,3.7903,3.7929,3.7943,3.7954,3.7949,3.7766,0,0,0,0,0,3.7588,3.7636,3.7657,3.7729,3.7743,3.775,3.7776,3.777,3.7797,3.7808,3.7822,3.7848,3.7889,3.7916,3.7955,3.8039,3.8044,3.8078,3.8089,3.8098,3.8107,3.8151,3.8166,3.8006,3.8006,3.8006,0,0,3.7631,3.7652,3.7682,3.7739,3.776,3.7808,3.776,3.7813,3.7848,3.7815,3.7881,3.7892,3.792,3.7997,3.8031,3.8009,3.8152,3.8107,3.8114,3.8118,3.816,3.8175,3.8188,3.8011,3.801,3.8009,0,0,3.7733,3.7754,3.7817,3.7838,3.7871,3.7874,3.7889,3.7916,3.7922,3.7989,3.7965,3.8005,3.8077,3.8098,3.8118,3.8227,3.8207,3.824,3.8299,3.8342,3.8354,3.8366,3.8404,3.8418,3.8248,3.8249,3.8249,0,3.7781,3.7855,3.785,3.7905,3.793,3.7904,3.7966,3.7986,3.8029,3.8046,3.802,3.811,3.8126,3.8207,3.8234,3.8251,3.8266,3.8237,3.8353,3.8364,3.8375,3.8411,3.8426,3.8252,3.8252,3.8252,3.8251,0,3.7912,3.7963,3.8009,3.8053,3.8083,3.8141,3.8143,3.8173,3.8164,3.817,3.8237,3.8256,3.8299,3.8317,3.8308,3.8396,3.8381,3.8355,3.8309,3.8394,3.8428,3.8442,3.8258,3.8257,3.8255,3.8254,0,0,3.8048,3.8088,3.8105,3.8124,3.8157,3.8195,3.8251,3.8294,3.832,3.8349,3.8395,3.8456,3.8432,3.8454,3.8447,3.8485,3.8569,3.8454,3.8454,3.8474,3.8666,3.8686,3.8703,3.8556,3.8559,3.8561,3.8664,0,3.8152,3.8252,3.8249,3.8341,3.8387,3.8362,3.841,3.8435,3.8441,3.848,3.8486,3.8529,3.8494,3.8507,3.8544,3.8552,3.8608,3.8544,3.8597,3.8599,3.8591,3.872,3.8742,3.8838,3.8677,3.8679,3.8681,0,3.8287,3.8323,3.8421,3.8447,3.8466,3.851,3.8548,3.8585,3.8612,3.8613,3.8639,3.8625,3.8679,3.8632,3.8706,3.8662,3.8683,3.869,3.8693,3.8698,3.8645,3.8728,3.8869,3.8884,3.8702,3.87,3.8699,0,3.8376,3.8448,3.8516,3.8533,3.8565,3.8596,3.861,3.8634,3.8659,3.8692,3.8708,3.8746,3.8767,3.8795,3.8792,3.8758,3.8866,3.8819,3.8868,3.8868,3.8892,3.8891,3.9039,3.8906,3.8906,3.8906,3.8905,0,3.8492,3.8553,3.8556,3.8598,3.8664,3.8658,3.8723,3.8733,3.8755,3.8796,3.8776,3.8815,3.8808,3.8847,3.8844,3.8905,3.8914,3.8916,3.8914,3.8918,3.8918,3.8931,3.8924,3.891,3.8909,3.8908,3.8907,0,3.8603,3.8608,3.8679,3.8704,3.8711,3.8759,3.8778,3.8817,3.8821,3.8874,3.8886,3.8892,3.8936,3.8936,3.8985,3.8983,3.9058,3.9049,3.905,3.9048,3.9097,3.9092,3.9259,3.928,3.9134,3.9135,3.9137,0,3.8677,3.8723,3.8753,3.878,3.8797,3.8841,3.8867,3.8863,3.889,3.8923,3.8957,3.9,3.9033,3.9104,3.9112,3.915,3.9141,3.9197,3.9146,3.9148,3.9141,3.9139,3.9143,3.9206,3.9208,3.9209,3.9211,0,3.8808,3.8808,3.8848,3.8889,3.8921,3.8952,3.8981,3.9004,3.9002,3.9034,3.9079,3.9106,3.9157,3.9198,3.9234,3.9246,3.9228,3.9226,3.924,3.9244,3.9242,3.9243,3.9076,3.9223,3.9221,3.922,3.922,3.9219,3.8903,3.8942,3.8969,3.9014,3.9035,3.9062,3.9099,3.9109,3.9147,3.919,3.9184,3.9235,3.9258,3.9304,3.932,3.9358,3.9338,3.9358,3.9362,3.9367,3.9373,3.9236,3.9364,3.9364,3.9364,3.9363,3.9363,0,3.9032,3.9049,3.909,3.9131,3.9166,3.9147,3.9177,3.9207,3.9252,3.9276,3.931,3.9362,3.9402,3.9413,3.9451,3.948,3.9472,3.949,3.9488,3.949,3.9388,3.9373,3.9495,3.9495,3.9495,3.9495,3.9495,3.9495,3.9104,3.917,3.9173,3.9248,3.9263,3.9314,3.9333,3.9357,3.9376,3.9436,3.947,3.9477,3.9495,3.9535,3.957,3.9572,3.9587,3.9608,3.9607,3.9511,3.9498,3.9485,3.9471,3.9611,3.9612,3.9705,3.9706,3.9707]}]]